Weather in Shmelevo

Russia / Kirov Oblast     58°15′32″N   47°48′27″E
temp.,
°C
wind,
m/s
gust,
m/s
humid.,
%
clouds,
%
prec.,
mm/h
press.,
hPa
HPBL,
m
11 april, sun
sun1100:00−2sw1298100 0.0 102762
03:00−2wsw2298100 0.0 1028140
06:00−2ssw2298100 0.0 1028160
09:00+1sw239995 0.0 1029229
12:00+5sw359044 0.0 1029319
15:00+7wsw368948 0.0 1030439
18:00+4ssw3697100 0.0 103290
21:00+3wsw279789 0.0 1033104
12 april, mon
mon1200:00−1n119863 0.0 103510
03:00−2nnw119715 0.0 103810
06:000ne23966 0.0 103948
09:00+5e22870 0.0 1039266
12:00+8ese22762 0.0 1039642
15:00+9ese236952 0.0 1039826
18:00+6e2291100 0.0 103829
21:00+3sse2598100 0.0 103890
13 april, tue
tue1300:00+2se2498100 0.0 103774
03:00+2se3897100 0.0 1036169
06:00+3se3994100 0.0 1034224
09:00+8s478596 0.0 1033318
12:00+14s577171 0.0 1031634
15:00+15s5870100 0.0 1030796
18:00+12s3885100 0.0 1029204
21:00+9s31093100 0.0 1029206
14 april, wed
wed1400:00+8ssw3893100 0.0 1028144
03:00+7ssw3692100 0.0 102895
06:00+6ssw368885 0.0 1027116
09:00+12ssw466359 0.0 1026357
12:00+16ssw574889 0.0 1025928
15:00+17ssw5746100 0.0 10241250
18:00+13ssw386497 0.0 1023153
21:00+10ssw397568 0.0 1023145
15 april, thu
thu1500:00+8ssw387858 0.0 1022128
03:00+7ssw3784100 0.0 1021113
06:00+7ssw388571 0.0 1020158
09:00+13sw476048 0.0 1019445
12:00+16sw4648100 0.0 1018935
15:00+17sw4642100 0.0 10161655
18:00+14sw245999 0.0 101586
21:00+8n5881100 0.0 1016416